Regional Weather Roundup
Issued by NWS

Home | Current Version | Previous Version | Text Only | Print | Product List | Glossary Off
Versions: 1 2 3 4 5 6 7 8 9 10 11 12 13 14 15 16 17 18 19 20 21 22 23 24 25 26 27 28 29 30 31 32 33 34 35 36 37 38 39 40 41 42 43 44 45 46 47 48 49 50

000
ASUS44 KMEG 182110
RWRTN
TENNESSEE HOURLY STATE WEATHER ROUNDUP
NATIONAL WEATHER SERVICE MEMPHIS TN
300 PM CST WED JAN 18 2017

TNZ002-004-019-021-049-052-054-088>092-182200-
WEST TENNESSEE

CITY           SKY/WX    TMP DP  RH WIND       PRES   REMARKS
MEMPHIS INTL   CLOUDY    54  43  66 E5        30.11F
NWS MEMPHIS      N/A     53 N/A N/A MISG        N/A
JACKSON        CLOUDY    52  45  77 E8        30.12F
DYERSBURG      CLOUDY    48  41  76 SE8       30.13S
UNION CITY     PTSUNNY   46  46 100 CALM      30.12F
PARIS          PTSUNNY   45  39  81 CALM      30.13F
HUNTINGDON     SUNNY     50  43  76 NE6       30.13S
$$

TNZ008-025-027-028-033-062-065-066-182200-
NORTH MIDDLE TENNESSEE

CITY           SKY/WX    TMP DP  RH WIND       PRES   REMARKS
NASHVILLE      CLOUDY    49  39  68 E3        30.17S
PORTLAND       SUNNY     50  39  66 CALM      30.16S
CLARKSVILLE    CLOUDY    48  38  68 S5        30.16F
SMYRNA         CLOUDY    48  41  76 E5        30.17F
GALLATIN       SUNNY     50  41  71 VRB3      30.20R
CROSSVILLE     CLOUDY    53  39  59 CALM      30.12S
$$

TNZ061-075-076-078-094-096-097-182200-
SOUTH MIDDLE TENNESSEE

CITY           SKY/WX    TMP DP  RH WIND       PRES   REMARKS
FAYETTEVILLE   CLOUDY    55  46  71 NE6       30.12F
TULLAHOMA      SUNNY     52  45  76 N5        30.14F
WINCHESTER     SUNNY     55  45  67 CALM      30.14S
MCMINNVILLE    SUNNY     52  43  71 NW3       30.15S
COLUMBIA       SUNNY     52  52 100 E7        30.12F
SHELBYVILLE    SUNNY     52  45  76 N5        30.16F
$$

TNZ017-018-042-046-047-182200-
NORTHEAST TENNESSEE

CITY           SKY/WX    TMP DP  RH WIND       PRES   REMARKS
TRI CITIES     MOSUNNY   58  38  47 SW12      30.08S
ELIZABETHTON   SUNNY     59  39  47 NW8       30.07S
$$

TNZ012-013-036-069-073-074-182200-
CENTRAL EAST TENNESSEE

CITY           SKY/WX    TMP DP  RH WIND       PRES   REMARKS
KNOXVILLE      CLOUDY    60  41  49 CALM      30.09F
OAK RIDGE      MOSUNNY   60  41  49 CALM      30.11F
GATLINBURG     SUNNY     57  43  58 CALM      30.09F
MORRISTOWN     SUNNY     57  39  51 W6        30.09S
JACKSBORO      SUNNY     55  41  58 VRB3      30.13S
$$

TNZ083-085-099-182200-
SOUTHEAST TENNESSEE

CITY           SKY/WX    TMP DP  RH WIND       PRES   REMARKS
CHATTANOOGA    CLOUDY    64  44  48 N6        30.11R
$$

SKY/WX REPORTED AS FAIR MEANS FEW OR NO CLOUDS BELOW
12 THOUSAND FEET.





USA.gov is the U.S. government's official web portal to all federal, state and local government web resources and services.